GWO459 Weather Reports


Display with metric or nautical units.
time (UTC)temp
F
wind
direction
speed
MPH
gust
MPH
rain 1hr
in
rain 24hr
in
rain mn
in
humidity
%
barometer
mb
20260503203603 53 0 0.0 1.0 0.00 0.00 0.00 93 1034.3
20260503202703 53 0 0.0 1.0 0.00 0.00 0.00 93 1034.2
20260503202017 52 0 0.0 0.0 0.00 0.00 0.00 93 1034.2
20260503200903 52 0 0.0 0.0 0.00 0.00 0.00 93 1034.1
20260503200003 52 0 0.0 0.0 0.00 0.00 0.00 93 1034.0
20260503195403 51 0 0.0 0.0 0.00 0.00 0.00 93 1034.0
20260503194503 51 0 0.0 0.0 0.00 0.00 0.00 93 1034.0
20260503193603 51 0 0.0 0.0 0.00 0.00 0.00 93 1033.9
20260503192703 51 0 0.0 0.0 0.00 0.00 0.00 92 1033.8
20260503191803 51 0 0.0 0.0 0.00 0.00 0.00 92 1033.7
20260503191118 50 0 0.0 0.0 0.00 0.00 0.00 92 1033.7
20260503190003 50 0 0.0 1.0 0.00 0.00 0.00 92 1033.5
20260503185403 50 0 0.0 0.0 0.00 0.00 0.00 92 1033.4
20260503184503 50 0 0.0 0.0 0.00 0.00 0.00 92 1033.4
20260503183603 50 0 0.0 0.0 0.00 0.00 0.00 92 1033.2
20260503182704 50 0 0.0 0.0 0.00 0.00 0.00 92 1033.1
20260503181803 50 0 0.0 0.0 0.00 0.00 0.00 92 1033.1
20260503181117 51 0 0.0 0.0 0.00 0.00 0.00 92 1033.0
20260503180004 51 0 0.0 0.0 0.00 0.00 0.00 92 1032.9
20260503175618 51 0 0.0 0.0 0.00 0.00 0.00 92 1032.9
20260503174503 51 0 0.0 0.0 0.00 0.00 0.00 91 1032.9
20260503173603 51 0 0.0 0.0 0.00 0.00 0.00 91 1032.9
20260503172703 51 0 0.0 0.0 0.00 0.00 0.00 91 1032.8
20260503172017 51 0 0.0 0.0 0.00 0.00 0.00 91 1032.9
20260503171117 51 0 0.0 0.0 0.00 0.00 0.00 91 1033.0
20260503150904 52 0 0.0 1.0 0.00 0.00 0.00 92 1033.6
20260503150219 52 0 0.0 0.0 0.00 0.00 0.00 92 1033.7
20260503140217 51 0 0.0 0.0 0.00 0.00 0.00 92 1034.2
20260503130903 49 0 0.0 0.0 0.00 0.00 0.00 91 1034.2
20260503130217 49 0 0.0 0.0 0.00 0.00 0.00 91 1034.2
20260503110218 48 0 0.0 0.0 0.00 0.00 0.00 89 1033.8
20260503080903 51 0 0.0 0.0 0.00 0.00 0.00 85 1032.4
20260503072703 52 0 0.0 0.0 0.00 0.00 0.00 82 1032.2
20260503072018 52 0 0.0 0.0 0.00 0.00 0.00 82 1032.2
20260503070903 53 0 0.0 0.0 0.00 0.00 0.00 82 1032.2
20260503054717 59 0 0.0 2.0 0.00 0.00 0.00 73 1031.8
20260503053603 61 0 0.0 1.0 0.00 0.00 0.00 70 1031.7
20260503052918 61 0 0.0 0.0 0.00 0.00 0.00 69 1031.6
20260503051803 62 53 1.0 1.0 0.00 0.00 0.00 67 1031.5
20260503050903 63 55 2.0 4.0 0.00 0.00 0.00 66 1031.5
20260503050003 64 55 2.0 5.0 0.00 0.00 0.00 64 1031.4
20260503045403 64 53 2.0 5.0 0.00 0.00 0.00 64 1031.4
20260503044503 65 51 3.0 4.0 0.00 0.00 0.00 63 1031.4
20260503043603 65 50 3.0 6.0 0.00 0.00 0.00 62 1031.4
20260503042703 66 43 3.0 7.0 0.00 0.00 0.00 61 1031.4
20260503041803 66 45 2.0 5.0 0.00 0.00 0.00 60 1031.5
20260503040903 67 55 3.0 6.0 0.00 0.00 0.00 60 1031.4
20260503040217 67 32 3.0 7.0 0.00 0.00 0.00 61 1031.4
20260503035441 67 29 2.0 7.0 0.00 0.00 0.00 59 1031.4
20260503034504 68 32 2.0 5.0 0.00 0.00 0.00 58 1031.3
20260503033818 67 342 2.0 7.0 0.00 0.00 0.00 58 1031.3
20260503032703 68 20 2.0 7.0 0.00 0.00 0.00 58 1031.3
20260503031803 68 28 3.0 7.0 0.00 0.00 0.00 57 1031.4
20260503030906 68 35 3.0 6.0 0.00 0.00 0.00 56 1031.4
20260503030004 68 46 3.0 8.0 0.00 0.00 0.00 57 1031.4
20260503025403 68 23 3.0 8.0 0.00 0.00 0.00 57 1031.5
20260503024503 68 20 2.0 7.0 0.00 0.00 0.00 57 1031.5
20260503023817 68 7 2.0 7.0 0.00 0.00 0.00 57 1031.6
20260503022916 68 313 2.0 7.0 0.00 0.00 0.00 57 1031.6
20260503021803 68 355 2.0 5.0 0.00 0.00 0.00 56 1031.6
20260503020903 69 36 3.0 6.0 0.00 0.00 0.00 56 1031.7
20260503020003 69 38 3.0 9.0 0.00 0.00 0.00 56 1031.8
20260503015403 69 24 3.0 9.0 0.00 0.00 0.00 55 1031.8
20260503014503 69 13 3.0 9.0 0.00 0.00 0.00 56 1031.9
20260503013603 69 13 3.0 8.0 0.00 0.00 0.00 53 1032.0
20260503012703 69 8 3.0 8.0 0.00 0.00 0.00 54 1032.1
20260503011803 69 4 3.0 9.0 0.00 0.00 0.00 53 1032.2
20260503010903 69 15 2.0 4.0 0.00 0.00 0.00 57 1032.2
20260503010003 69 18 2.0 8.0 0.00 0.00 0.00 56 1032.4
20260503005403 69 6 3.0 8.0 0.00 0.00 0.00 56 1032.5
20260503004503 68 12 3.0 8.0 0.00 0.00 0.00 57 1032.6
20260503003603 68 2 2.0 6.0 0.00 0.00 0.00 56 1032.7
20260503002703 68 338 2.0 5.0 0.00 0.00 0.00 54 1032.8
20260503001803 68 31 2.0 6.0 0.00 0.00 0.00 57 1033.0
20260503001119 67 18 2.0 5.0 0.00 0.00 0.00 59 1033.0
20260503000003 66 321 2.0 4.0 0.00 0.00 0.00 59 1033.2
20260502235617 66 297 2.0 6.0 0.00 0.00 0.00 60 1033.3
20260502234717 66 282 2.0 6.0 0.00 0.00 0.00 62 1033.4
20260502233603 66 272 2.0 4.0 0.00 0.00 0.00 60 1033.5
20260502232703 66 324 2.0 5.0 0.00 0.00 0.00 61 1033.6
20260502231803 66 269 3.0 6.0 0.00 0.00 0.00 61 1033.7
20260502231118 65 254 2.0 7.0 0.00 0.00 0.00 65 1033.7
20260502230003 65 275 2.0 4.0 0.00 0.00 0.00 62 1033.8
20260502225403 65 319 2.0 4.0 0.00 0.00 0.00 63 1033.8
20260502224503 65 268 2.0 5.0 0.00 0.00 0.00 62 1033.8
20260502223603 64 310 2.0 5.0 0.00 0.00 0.00 65 1033.9
20260502222703 64 246 2.0 4.0 0.00 0.00 0.00 66 1033.8
20260502221803 63 221 2.0 5.0 0.00 0.00 0.00 66 1033.9
20260502220903 62 272 1.0 5.0 0.00 0.00 0.00 68 1033.9
20260502220003 62 0 0.0 3.0 0.00 0.00 0.00 73 1033.9
20260502215403 61 0 0.0 0.0 0.00 0.00 0.00 75 1034.0
20260502214503 60 0 0.0 0.0 0.00 0.00 0.00 82 1034.1
20260502213603 58 0 0.0 0.0 0.00 0.00 0.00 88 1034.1
20260502212703 56 0 0.0 0.0 0.00 0.00 0.00 92 1034.1
20260502211803 55 0 0.0 0.0 0.00 0.00 0.00 94 1034.1
20260502210903 53 0 0.0 0.0 0.00 0.00 0.00 94 1034.1
20260502210004 52 0 0.0 0.0 0.00 0.00 0.00 94 1034.2
20260502205618 51 0 0.0 0.0 0.00 0.00 0.00 94 1034.1
20260502204503 49 0 0.0 0.0 0.00 0.00 0.00 94 1034.3